Retour au catalogue

STARLINK-32536

ActifCommunicationsVLEO
NORAD 61925·PAYLOAD·🇺🇸 United States

Lancé Nov 11, 2024 depuis Cape Canaveral Space Force Station

Loading…

Prochains Passages (prochaines 24 heures)

TLE

FraisSource: CelesTrak SupGP

Époque: Sep 15, 2026, 03:17 UTC

1 61925C 24207P   26258.13729167  .00011785  00000+0  42681-3 0  2580
2 61925  43.0029 295.8065 0001483 268.5103 311.4535 15.27575759    15

Suivez STARLINK-32536 en temps réel avec AllMySat

Download on the App Store